Regional Weather Roundup
Issued by NWS Green Bay, WI

Home | Current Version | Previous Version | Graphics & Text | Print | Product List | Glossary Off
Versions: 1 2 3 4 5 6 7 8 9 10 11 12 13 14 15 16 17 18 19 20 21 22 23 24 25 26 27 28 29 30 31 32 33 34 35 36 37 38 39 40 41 42 43 44 45 46 47 48 49 50

000
ASUS43 KGRB 180010
RWRGRB

NORTH-CENTRAL AND NORTHEAST WISCONSIN REGIONAL WEATHER ROUNDUP
NATIONAL WEATHER SERVICE GREEN BAY WI
600 PM CST WED DEC 17 2014

WIZ005-009-010>012-018-019-180100-
NORTH CENTRAL WISCONSIN

CITY           SKY/WX    TMP DP  RH WIND       PRES   REMARKS
IRONWOOD       CLOUDY    21  19  93 N7        30.23R
MANITOWISH WTR CLOUDY    21  19  94 N8        30.20S
ARBOR VITAE    CLOUDY    22  19  90 N12       30.20R
EAGLE RIVER    CLOUDY    21  17  85 N9        30.18R
LAND O LAKES   CLOUDY    22  20  94 N8        30.19R
RHINELANDER    CLOUDY    20  17  88 NW6       30.19R
PHILLIPS       CLOUDY    19  15  85 NW6       30.22S
ANTIGO         CLOUDY    21  17  86 NW10      30.18R WCI   9
TOMAHAWK       CLOUDY    20  16  84 CALM      30.21S
MERRILL        CLOUDY    21  15  78 NW7       30.21S
$$

WIZ013-073-180100-
NORTHEAST WISCONSIN

CITY           SKY/WX    TMP DP  RH WIND       PRES   REMARKS
IRON MOUNTAIN  CLOUDY    24  19  81 NW13      30.15R
MARINETTE      CLOUDY    27  19  74 NW6       30.17R
OCONTO         CLOUDY    26  19  73 W6        30.19S
$$

WIZ017-030-035>037-045-180100-
CENTRAL WISCONSIN

CITY           SKY/WX    TMP DP  RH WIND       PRES   REMARKS
MEDFORD        CLOUDY    18  12  77 NW6       30.21S WCI  10
WAUSAU         CLOUDY    22  14  71 NW8       30.20S
MOSINEE        CLOUDY    19  16  86 NW7       30.22S
MARSHFIELD     CLOUDY    18  11  74 NW9       30.23S WCI   7
WISC RAPIDS    PTCLDY    17  10  74 NW7       30.26S WCI   8
STEVENS POINT  MOCLDY    17  10  74 W6        30.24R WCI   9
WAUPACA        MOCLDY    23  13  67 W6        30.24R
SHAWANO        CLOUDY    28  19  69 W7        30.22R
CLINTONVILLE   CLOUDY    25  16  68 W7        30.22S
$$

WIZ038-039-048-051-180100-
FOX VALLEY

CITY           SKY/WX    TMP DP  RH WIND       PRES   REMARKS
NWS GREEN BAY  CLOUDY    26  17  68 W10       30.21S
APPLETON       MOCLDY    21  14  73 W10       30.22R
OSHKOSH        CLEAR     22  14  71 NW8       30.23R
FOND DU LAC    CLEAR     21  13  71 NW8       30.24R
$$

WIZ022-050-052-180100-
EAST CENTRAL WISCONSIN

CITY           SKY/WX    TMP DP  RH WIND       PRES   REMARKS
STURGEON BAY   CLOUDY    28  18  64 NW14G22   30.18R
MANITOWOC      CLOUDY    26  17  68 NW13      30.20R
SHEBOYGAN      MOCLDY    23  15  71 W13       30.22R
$$

LMZ563-521-522-541>543-180100-
LAKESHORE

STATION/POSITION TIME  TEMP    WIND        PRES    VSBY  WAVE
                       AIR SEA DIR/SP/G                  HT/PER
                 (UTC) (F)     (DEG/KT/KT) (MB)    (MI)  (FT/S)
SHEBOYGAN LKSHOR 0000   24 35  280/ 13/ 15 1024.4R
KEWAUNEE LKSHORE 0000   26     300/  9/ 12 1021.0S
ALGOMA MARINA    2300          320/  9/ 14   N/A
NORTHPORT PIER   0000   30     330/ 18/ 25 1020.7R
SISTER BAY LKSHO 2300          340/ 27/ 31   N/A
CHAMBERS ISLAND  0000   29     310/ 13/ 19 1021.7R
MENOMINEE LKSHOR 0000   28     300/ 12/ 15 1022.3S
$$


USA.gov is the U.S. government's official web portal to all federal, state and local government web resources and services.